Starlink 32643

operational
NORAD ID: 62233 Int'l Des: 2024-231 Owner: SPXS Country: US Constellation: starlink
LEOCIRCULAR

Über Starlink 32643

Beschreibung wird geladen...

Live-Position

3D-Globus wird geladen...

Nächste Überflüge

Höhenverlauf

Altitude vs Time

uPlot chart will show altitude changes over time

Zweizeiliger Elementsatz

1 62233U 24231R 25352.27577052 .00002318 00000-0 90398-4 0 9997
2 62233 53.1563 225.0018 0001200 87.3811 272.7327 15.30191226 59475
Epoch: 18. Dez. 2025 • Age: 18 hours

Aktueller Status

Höhe 477.8 km
Geschwindigkeit 7.63 km/s
Subsatellitenpunkt 38.10°N, 88.46°W
Startdatum 5. Dez. 2024
Alter 1 years
Typ internet

Technische Details

Klassifizierung Payload
Masse 730.00 kg
Trockenmasse 700.00 kg
Gesamtmasse 730.00 kg
Länge 0.30 m
Durchmesser 4.10 m
Spannweite 29.00 m
Form Box + pan
Hersteller SPXS
Bus-Typ Starlink V2M
Phasenstatus In Orbit
Besitzer/Staat SPXS/US

Große Konstellationen

Loading constellations...